Location: Caltech
(34.1382°N, 118.1253°W)
Time: 20:19:24
(UTC-08:00)

SO-67 - Visible Passes

Search period start: 03 March 2015 00:00
Search period end: 13 March 2015 01:00
Orbit: 448 x 449 km, 97.1° (Epoch: 03 March)

Date Brightness Start Highest point End Pass type
(mag) Time Alt. Az. Time Alt. Az. Time Alt. Az.
03 Mar ? 19:01:35 10° SW 19:03:48 16° W 19:05:54 10° NW visible
04 Mar ? 18:25:01 10° S 18:28:20 52° W 18:31:39 10° NNW visible
05 Mar ? 05:52:00 10° ENE 05:53:05 11° E 05:54:19 10° ESE visible
06 Mar ? 18:47:36 10° SSW 18:50:26 24° W 18:53:13 10° NW visible
07 Mar ? 18:11:36 10° SSE 18:14:59 87° W 18:18:22 10° NNW visible
08 Mar ? 20:11:04 10° WSW 20:12:31 12° W 20:13:49 10° WNW visible
09 Mar ? 19:33:42 10° SSW 19:36:52 38° W 19:40:03 10° NNW visible
11 Mar ? 19:56:16 10° SW 19:58:45 18° W 20:01:09 10° NW visible
12 Mar ? 19:19:46 10° S 19:23:07 63° W 19:26:29 10° NNW visible
